Home > Weather > Hückelhoven > Past weeks

Flag for Germany Weather for the Past 2 Weeks in Hückelhoven, North Rhine-Westphalia, Germany

Now
41 °F

Clear.


Feels Like: 36 °F
Forecast: 40 / 50 °F
Wind: 7 mph from South

Location: Geilenkirchen Airport

Current Time: Apr 29, 2016 at 2:15:38 AM

Latest Report: Apr 29, 2016 at 12:50 AM


Visibility: 10 mi

Pressure: 29.98 "Hg

Humidity: 76%

Dew Point: 34 °F

Location of HückelhovenLocation

Historic Weather in Hückelhoven — Graph

°F

Hückelhoven Temperature Yesterday

Maximum temperature yesterday: 50 °F (at 2:50 PM)
Minimum temperature yesterday: 34 °F (at 6:50 AM)
Average temperature yesterday: 42 °F

High & Low Weather Summary for the Past Weeks

 TemperatureHumidityPressure
High66 °F (Apr 21, 2:50 PM)100% (Apr 14, 3:50 AM)30.48 "Hg (Apr 14, 3:50 AM)
Low32 °F (Apr 20, 4:50 AM)32% (Apr 21, 1:50 PM)29.53 "Hg (Apr 26, 9:50 AM)
Average46 °F72%29.99 "Hg
* Reported Apr 14 12:50 AM — Apr 29 12:50 AM, Hückelhoven, Weather by CustomWeather, © 2016

Note: Actual official high and low records may vary slightly from our data, if they occured in-between our weather recording intervals... More about our weather records

Advertising

Hückelhoven Weather History for the Previous 24 Hours

Scroll right to see more
 ConditionsComfort  
Time TempWeatherWind HumidityBarometerVisibility
12:50 AM
Fri, Apr 29
41 °FClear.7 mph76%29.98 "Hg10 mi
11:50 PM
Thu, Apr 28
41 °FClear.5 mph81%29.98 "Hg10 mi
10:50 PM41 °FClear.3 mph87%29.98 "Hg10 mi
9:50 PM43 °FSunny.5 mph81%29.98 "Hg10 mi
8:50 PM43 °FSunny.5 mph81%29.98 "Hg10 mi
7:50 PM43 °FPartly sunny.5 mph81%29.98 "HgN/A
6:50 PM45 °FPartly sunny.7 mph81%29.98 "HgN/A
5:50 PM43 °FBroken clouds.1 mph81%29.98 "HgN/A
4:50 PM50 °FScattered clouds.14 mph50%29.95 "HgN/A
3:50 PM50 °FScattered clouds.9 mph54%29.95 "HgN/A
2:50 PM50 °FScattered clouds.12 mph50%29.98 "HgN/A
1:50 PM48 °FPassing clouds.12 mph54%29.98 "HgN/A
12:50 PM46 °FScattered showers. Scattered clouds.7 mph62%29.98 "HgN/A
11:50 AM46 °FPartly sunny.8 mph57%29.98 "HgN/A
10:50 AM46 °FPartly sunny.9 mph62%29.98 "HgN/A
9:50 AM43 °FPassing clouds.8 mph76%29.98 "HgN/A
8:50 AM41 °FPassing clouds.7 mph76%29.98 "HgN/A
7:50 AM37 °FPassing clouds.7 mph81%29.95 "HgN/A
6:50 AM34 °FPassing clouds.7 mph93%29.95 "HgN/A
5:50 AM36 °FPassing clouds.6 mph87%29.92 "HgN/A
4:50 AM36 °FPassing clouds.6 mph93%29.92 "HgN/A
3:50 AM37 °FPassing clouds.5 mph87%29.92 "HgN/A
2:50 AM39 °FPartly cloudy.7 mph87%29.92 "HgN/A
Weather by CustomWeather, © 2016

See weather overviewHow to use our weather pages